When you browse on this site, cookies collect data to enhance your experience and personalize the content and advertising you see.
Visit our Privacy Policy to learn more. By continuing to use the site, you agree to this use of cookies and data.
EN

Hourly Weather Novosemeykino

Today, 18 September, Friday

Time Temperature Precipitation Wind Pressure Humidity
00:00 +8°C° 0 mm 2 mps 748 mmHg 64%
01:00 +8°C° 0 mm 3 mps 748 mmHg 64%
02:00 +8°C° 0 mm 3 mps 748 mmHg 63%
03:00 +8°C° 0 mm 3 mps 747 mmHg 62%
04:00 +8°C° 0 mm 4 mps 747 mmHg 61%
05:00 +8°C° 0 mm 4 mps 746 mmHg 60%
06:00 +8°C° 0 mm 5 mps 746 mmHg 58%
07:00 +10°C° 0 mm 5 mps 746 mmHg 53%
08:00 +13°C° 0 mm 6 mps 746 mmHg 48%
09:00 +15°C° 0 mm 7 mps 746 mmHg 43%
10:00 +16°C° 0 mm 7 mps 746 mmHg 40%
11:00 +18°C° 0 mm 8 mps 745 mmHg 38%
12:00 +20°C° 0 mm 8 mps 745 mmHg 35%
13:00 +20°C° 0 mm 7 mps 745 mmHg 35%
14:00 +20°C° 0 mm 7 mps 744 mmHg 35%
15:00 +20°C° 0 mm 6 mps 744 mmHg 34%
16:00 +19°C° 0 mm 5 mps 744 mmHg 37%
17:00 +17°C° 0 mm 5 mps 743 mmHg 39%
18:00 +15°C° 0 mm 4 mps 743 mmHg 41%
19:00 +15°C° 0 mm 4 mps 743 mmHg 42%
20:00 +15°C° 0 mm 4 mps 743 mmHg 43%
21:00 +14°C° 0 mm 4 mps 743 mmHg 43%
22:00 +14°C° 0 mm 4 mps 742 mmHg 44%
23:00 +13°C° 0 mm 5 mps 742 mmHg 46%

Tomorrow, 19 September, Saturday

Time Temperature Precipitation Wind Pressure Humidity
00:00 +13°C° 0 mm 5 mps 741 mmHg 47%
01:00 +13°C° 0 mm 4 mps 741 mmHg 48%
02:00 +13°C° 0 mm 4 mps 740 mmHg 49%
03:00 +12°C° 0 mm 4 mps 740 mmHg 50%
04:00 +11°C° 2 mm 4 mps 739 mmHg 63%
05:00 +10°C° 2 mm 4 mps 739 mmHg 76%
06:00 +8°C° 2 mm 4 mps 738 mmHg 90%
07:00 +8°C° 0.6 mm 4 mps 738 mmHg 88%
08:00 +10°C° 0.6 mm 4 mps 738 mmHg 86%
09:00 +10°C° 0.6 mm 4 mps 738 mmHg 85%
10:00 +11°C° 0 mm 3 mps 737 mmHg 83%
11:00 +12°C° 0 mm 2 mps 737 mmHg 81%
12:00 +13°C° 0 mm 1 mps 736 mmHg 79%
13:00 +12°C° 1 mm 1 mps 736 mmHg 84%
14:00 +12°C° 1 mm 1 mps 736 mmHg 88%
15:00 +12°C° 1 mm 2 mps 735 mmHg 92%
16:00 +11°C° 0.7 mm 3 mps 735 mmHg 91%
17:00 +10°C° 0.7 mm 4 mps 735 mmHg 89%
18:00 +9°C° 0.7 mm 5 mps 735 mmHg 87%
19:00 +9°C° 0.2 mm 5 mps 735 mmHg 87%
20:00 +9°C° 0.2 mm 6 mps 735 mmHg 86%
21:00 +8°C° 0.2 mm 7 mps 735 mmHg 85%
22:00 +8°C° 0 mm 7 mps 735 mmHg 84%
23:00 +6°C° 0 mm 7 mps 735 mmHg 83%

Day after tomorrow, 20 September, Sunday

Time Temperature Precipitation Wind Pressure Humidity
00:00 +6°C° 0 mm 7 mps 735 mmHg 83%
01:00 +5°C° 0 mm 7 mps 736 mmHg 83%
02:00 +5°C° 0 mm 6 mps 736 mmHg 83%
03:00 +5°C° 0 mm 6 mps 736 mmHg 83%
04:00 +4°C° 0 mm 6 mps 736 mmHg 85%
05:00 +5°C° 0 mm 5 mps 737 mmHg 87%
06:00 +5°C° 0 mm 4 mps 737 mmHg 88%
07:00 +6°C° 0 mm 5 mps 737 mmHg 84%
08:00 +7°C° 0 mm 5 mps 737 mmHg 80%
09:00 +8°C° 0 mm 6 mps 738 mmHg 76%
10:00 +8°C° 0.2 mm 6 mps 738 mmHg 74%
11:00 +8°C° 0.2 mm 6 mps 738 mmHg 72%
12:00 +9°C° 0.2 mm 6 mps 738 mmHg 71%
13:00 +8°C° 0.3 mm 6 mps 738 mmHg 75%
14:00 +7°C° 0.3 mm 6 mps 738 mmHg 78%
15:00 +5°C° 0.3 mm 6 mps 739 mmHg 82%
16:00 +6°C° 0.1 mm 5 mps 739 mmHg 82%
17:00 +6°C° 0.1 mm 5 mps 740 mmHg 81%
18:00 +6°C° 0.1 mm 4 mps 740 mmHg 81%
19:00 +5°C° 0 mm 4 mps 741 mmHg 81%
20:00 +5°C° 0 mm 5 mps 742 mmHg 82%
21:00 +5°C° 0 mm 5 mps 742 mmHg 82%
22:00 +4°C° 0 mm 4 mps 742 mmHg 83%
23:00 +4°C° 0 mm 4 mps 743 mmHg 85%

21 September, Monday

Time Temperature Precipitation Wind Pressure Humidity
00:00 +4°C° 0 mm 4 mps 743 mmHg 86%
01:00 +4°C° 0 mm 4 mps 743 mmHg 86%
02:00 +4°C° 0 mm 4 mps 744 mmHg 86%
03:00 +4°C° 0 mm 4 mps 744 mmHg 86%
04:00 +4°C° 0 mm 4 mps 744 mmHg 85%
05:00 +4°C° 0 mm 4 mps 744 mmHg 85%
06:00 +3°C° 0 mm 5 mps 745 mmHg 84%
07:00 +5°C° 0 mm 5 mps 745 mmHg 79%
08:00 +6°C° 0 mm 5 mps 745 mmHg 74%
09:00 +7°C° 0 mm 6 mps 745 mmHg 69%
10:00 +8°C° 0 mm 6 mps 745 mmHg 64%
11:00 +9°C° 0 mm 6 mps 745 mmHg 59%
12:00 +9°C° 0 mm 6 mps 745 mmHg 54%
13:00 +9°C° 0 mm 6 mps 745 mmHg 56%
14:00 +9°C° 0 mm 6 mps 745 mmHg 58%
15:00 +9°C° 0 mm 7 mps 744 mmHg 60%
16:00 +9°C° 0 mm 6 mps 744 mmHg 62%
17:00 +9°C° 0 mm 5 mps 744 mmHg 65%
18:00 +8°C° 0 mm 4 mps 743 mmHg 67%
19:00 +8°C° 0.2 mm 5 mps 743 mmHg 72%
20:00 +8°C° 0.2 mm 6 mps 742 mmHg 76%
21:00 +8°C° 0.2 mm 7 mps 742 mmHg 81%
22:00 +8°C° 0.2 mm 7 mps 742 mmHg 80%
23:00 +8°C° 0.2 mm 6 mps 742 mmHg 80%

22 September, Tuesday

Time Temperature Precipitation Wind Pressure Humidity
00:00 +8°C° 0.2 mm 6 mps 742 mmHg 80%
01:00 +7°C° 0 mm 6 mps 743 mmHg 82%
02:00 +7°C° 0 mm 5 mps 743 mmHg 84%
03:00 +6°C° 0 mm 4 mps 744 mmHg 86%
04:00 +5°C° 0 mm 4 mps 745 mmHg 86%
05:00 +5°C° 0 mm 4 mps 745 mmHg 85%
06:00 +5°C° 0 mm 4 mps 746 mmHg 85%
07:00 +6°C° 0 mm 5 mps 747 mmHg 79%
08:00 +7°C° 0 mm 5 mps 748 mmHg 74%
09:00 +8°C° 0 mm 5 mps 748 mmHg 69%
10:00 +8°C° 0 mm 5 mps 749 mmHg 64%
11:00 +9°C° 0 mm 5 mps 749 mmHg 59%
12:00 +10°C° 0 mm 5 mps 750 mmHg 54%
13:00 +10°C° 0 mm 5 mps 750 mmHg 53%
14:00 +12°C° 0 mm 5 mps 750 mmHg 52%
15:00 +12°C° 0 mm 4 mps 750 mmHg 50%
16:00 +11°C° 0 mm 3 mps 751 mmHg 55%
17:00 +10°C° 0 mm 2 mps 751 mmHg 59%
18:00 +9°C° 0 mm 1 mps 751 mmHg 64%
19:00 +8°C° 0 mm 2 mps 751 mmHg 64%
20:00 +8°C° 0 mm 2 mps 751 mmHg 65%
21:00 +7°C° 0 mm 2 mps 751 mmHg 66%
22:00 +7°C° 0 mm 2 mps 751 mmHg 66%
23:00 +7°C° 0 mm 2 mps 751 mmHg 67%

23 September, Wednesday

Time Temperature Precipitation Wind Pressure Humidity
00:00 +7°C° 0 mm 3 mps 752 mmHg 68%
01:00 +7°C° 0 mm 3 mps 751 mmHg 68%
02:00 +7°C° 0 mm 3 mps 751 mmHg 69%
03:00 +7°C° 0 mm 3 mps 751 mmHg 70%
04:00 +7°C° 0 mm 3 mps 751 mmHg 71%
05:00 +6°C° 0 mm 4 mps 751 mmHg 73%
06:00 +7°C° 0 mm 4 mps 752 mmHg 74%
07:00 +10°C° 0 mm 4 mps 752 mmHg 72%
08:00 +12°C° 0 mm 4 mps 752 mmHg 69%
09:00 +14°C° 0 mm 5 mps 752 mmHg 67%
10:00 +15°C° 0 mm 5 mps 752 mmHg 63%
11:00 +17°C° 0 mm 5 mps 752 mmHg 60%
12:00 +19°C° 0 mm 5 mps 752 mmHg 56%
13:00 +19°C° 0 mm 5 mps 752 mmHg 55%
14:00 +20°C° 0 mm 5 mps 752 mmHg 54%
15:00 +20°C° 0 mm 4 mps 752 mmHg 53%
16:00 +19°C° 0 mm 4 mps 752 mmHg 59%
17:00 +17°C° 0 mm 3 mps 752 mmHg 65%
18:00 +15°C° 0 mm 2 mps 752 mmHg 72%
19:00 +15°C° 0 mm 2 mps 752 mmHg 74%
20:00 +14°C° 0 mm 2 mps 752 mmHg 77%
21:00 +13°C° 0 mm 2 mps 752 mmHg 79%
22:00 +13°C° 0 mm 2 mps 752 mmHg 81%
23:00 +13°C° 0 mm 2 mps 753 mmHg 82%
Show more